STARLINK-31178, 59025

Orbit data source: Space-Track

STARLINK-31178, 59025 is a payload satellite owned by SpaceX/Seattle (US) in LEO that was launched on Sun, 25 Feb 2024 UTC via an FALCON 9 launch vehicle from the Air Force Eastern Test Range (AFETR). Payload-class satellites include a variety of spacecraft equipped with specific instruments for various scientific and technological missions. These include communications satellites like Starlink; space stations such as the ISS; scientific satellites like the Hubble; Earth observation satellites from companies like Planet Labs, Umbra, and HawkEye 360; GPS; miniature CubeSats for education and research; and military/defense satellites.

Loading next visibility...
Identifier
59025, 2024-038C
Orbit
LEO
Country
Flag of USUS
Related business
Manufacturer
SpaceX/Seattle
Mission
Operational Commercial Communications
Bus & Motor
STARLINK V2M, Unknown motor
Mass
730 kg wet, ~700 kg dry
Launch date (UTC)
2024-02-25 (2 years ago)
Launch vehicle
FALCON 9
Launch site
Air Force Eastern Test Range (AFETR)
Object type
Payload
Rocket body
Debris
Shape & HBR
Box + 2 Pan, 17.7 m
Radar Cross Section
33.884 m², Large (>1 m²)

Expand to show TLE details & history
Last TLE update: 23 hours ago

TLE from 23 hours ago
0 STARLINK-31178
1 59025U 24038C   25348.73592423 -.00001490  00000-0 -44637-4 0  9999
2 59025  43.0006 146.9595 0001686 274.6293  85.4367 15.27562651101655
Epoch: 2025-12-14T17:39Z
TLE epoch observation values (Epoch: 2025-12-14T17:39:43.853Z)
Latitude
0.00005°
Longitude
158.38226°
Altitude
482.785 km
Speed
7.626 km/s
True Right ascension
09h 47m 50s
True Declination
0° 00' 00"
Sunlit
Object was in full shadow at epoch
Visualization orbit readout
Latitude
Unknown
Longitude
Unknown
Altitude
Unknown
Speed
Unknown
Apparent Right ascension
Unknown
Apparent Declination
Unknown
Sunlit
N/A
Visualization observer readout
Local Sidereal Time
15:12:31
Azimuth
Unknown
Elevation
Unknown
Doppler factor
Unknown
Orbital elements
Apogee altitude
486.203 km
Perigee altitude
483.889 km
Semi-major axis
6,863.183 km
Eccentricity
0.00017
Inclination
43.0006°
RAAN
146.9595°
Arg. of periapsis
274.6293°
True anomaly
85.45596°
Mean anomaly
85.4367°
Eccentric anomaly
85.44633°
Mean motion
3.81729 °/min
Orbital period
94.31 mins
BSTAR
-0.000044637
Loading maneuver chart data...
Computing Atmospheric mass density...
Loading historical data...
Loading historical data...
Loading historical data...
Loading historical data...
Loading historical data...
Loading historical data...
Loading historical data...

Documentation

Showing up to 5 results
|